This is the latest recevied weather packets stored in our database for station/object WX7EM. If no packets are shown the sender has not sent any weather packets the latest 10 day(s).
| Time | Temp. | Humidity | Pressure | Rain* | Wind** | Luminosity | Snow |
|---|---|---|---|---|---|---|---|
| 1777562888 | 10.56° C | 85% | 1018.7 hPa | 0 mm | - | 267 W/m² | - |
| 1777562584 | 10° C | 86% | 1018.7 hPa | 0 mm | - | 250 W/m² | - |
| 1777562283 | 10° C | 87% | 1018.7 hPa | 0 mm | - | 214 W/m² | - |
| 1777561980 | 10° C | 88% | 1018.7 hPa | 0 mm | - | 170 W/m² | - |
| 1777561677 | 10° C | 89% | 1018.8 hPa | 0 mm | - | 151 W/m² | - |
| 1777561372 | 9.44° C | 89% | 1018.8 hPa | 0 mm | - | 149 W/m² | - |
| 1777561068 | 9.44° C | 89% | 1019 hPa | 0 mm | - | 139 W/m² | - |
| 1777560763 | 9.44° C | 88% | 1018.9 hPa | 0 mm | - | 132 W/m² | - |
| 1777560460 | 9.44° C | 89% | 1018.8 hPa | 0 mm | - | 126 W/m² | - |
| 1777560158 | 9.44° C | 89% | 1018.6 hPa | 0 mm | - | 120 W/m² | - |
| 1777559855 | 8.89° C | 92% | 1018.8 hPa | 0 mm | - | 117 W/m² | - |
| 1777559551 | 8.33° C | 92% | 1018.7 hPa | 0 mm | - | 107 W/m² | - |
| 1777559248 | 7.78° C | 94% | 1018.6 hPa | 0 mm | - | 100 W/m² | - |
| 1777558943 | 7.78° C | 95% | 1018.6 hPa | 0 mm | - | 85 W/m² | - |
| 1777558640 | 7.22° C | 96% | 1018.5 hPa | 0 mm | - | 73 W/m² | - |
| 1777558335 | 7.22° C | 96% | 1018.5 hPa | 0 mm | - | 65 W/m² | - |
| 1777558032 | 6.67° C | 96% | 1018.5 hPa | 0 mm | - | 58 W/m² | - |
| 1777557728 | 6.67° C | 97% | 1018.4 hPa | 0 mm | - | 52 W/m² | - |
| 1777557425 | 6.67° C | 97% | 1018.4 hPa | 0 mm | - | 47 W/m² | - |
| 1777557121 | 6.11° C | 98% | 1018.5 hPa | 0 mm | - | 40 W/m² | - |
| 1777556817 | 6.11° C | 98% | 1018.4 hPa | 0 mm | - | 38 W/m² | - |
| 1777556514 | 5.56° C | 98% | 1018.1 hPa | 0 mm | - | 32 W/m² | - |
| 1777556213 | 5.56° C | 98% | 1018.4 hPa | 0 mm | - | 27 W/m² | - |
| 1777555909 | 5.56° C | 98% | 1018.3 hPa | 0 mm | - | 22 W/m² | - |
| 1777555605 | 5.56° C | 98% | 1018.3 hPa | 0 mm | - | 18 W/m² | - |
* Rain latest hour (hover to see other rain measurements)
** Current wind speed in m/s (hover to see current wind gust speed)